This is the latest recevied weather packets stored in our database for station/object NR0A-4. If no packets are shown the sender has not sent any weather packets the latest 10 day(s).
| Time | Temp. | Humidity | Pressure | Rain* | Wind** | Luminosity | Snow |
|---|---|---|---|---|---|---|---|
| 1777947304 | 11.11° C | 61% | 1008.7 hPa | 0 mm | - | 0 W/m² | - |
| 1777947004 | 11.11° C | 61% | 1008.6 hPa | 0 mm | - | 0 W/m² | - |
| 1777946704 | 11.11° C | 61% | 1008.2 hPa | 0 mm | - | 0 W/m² | - |
| 1777946404 | 11.11° C | 60% | 1008.2 hPa | 0 mm | - | 0 W/m² | - |
| 1777946104 | 11.11° C | 60% | 1008.1 hPa | 0 mm | - | 0 W/m² | - |
| 1777945804 | 11.67° C | 60% | 1008.3 hPa | 0 mm | - | 0 W/m² | - |
| 1777945504 | 11.67° C | 61% | 1008.5 hPa | 0 mm | - | 0 W/m² | - |
| 1777945204 | 12.22° C | 58% | 1008.4 hPa | 0 mm | - | 0 W/m² | - |
| 1777944905 | 12.22° C | 54% | 1008.5 hPa | 0 mm | - | 0 W/m² | - |
| 1777944604 | 12.22° C | 55% | 1008.5 hPa | 0 mm | - | 0 W/m² | - |
| 1777944304 | 12.78° C | 53% | 1008.4 hPa | 0 mm | - | 0 W/m² | - |
| 1777944004 | 12.78° C | 49% | 1008.3 hPa | 0 mm | - | 0 W/m² | - |
| 1777943704 | 12.78° C | 48% | 1008.2 hPa | 0 mm | - | 0 W/m² | - |
| 1777943404 | 12.78° C | 47% | 1008.1 hPa | 0 mm | - | 7 W/m² | - |
| 1777943104 | 12.78° C | 45% | 1008 hPa | 0 mm | - | 16 W/m² | - |
| 1777942804 | 12.78° C | 44% | 1007.9 hPa | 0 mm | - | 18 W/m² | - |
| 1777942504 | 13.33° C | 44% | 1008.1 hPa | 0 mm | - | 23 W/m² | - |
| 1777942205 | 13.33° C | 44% | 1008.1 hPa | 0 mm | - | 32 W/m² | - |
| 1777941904 | 13.33° C | 45% | 1008.1 hPa | 0 mm | - | 46 W/m² | - |
| 1777941605 | 13.33° C | 44% | 1007.8 hPa | 0 mm | - | 51 W/m² | - |
| 1777941305 | 13.33° C | 44% | 1007.6 hPa | 0 mm | - | 67 W/m² | - |
| 1777941005 | 13.33° C | 43% | 1007.6 hPa | 0 mm | - | 54 W/m² | - |
| 1777940704 | 13.89° C | 43% | 1007.5 hPa | 0 mm | - | 26 W/m² | - |
| 1777940404 | 13.89° C | 43% | 1007.7 hPa | 0 mm | - | 18 W/m² | - |
| 1777940104 | 13.89° C | 43% | 1007.7 hPa | 0 mm | - | 28 W/m² | - |
* Rain latest hour (hover to see other rain measurements)
** Current wind speed in m/s (hover to see current wind gust speed)